Time,TemperatureF,DewpointF,PressureIn,WindDirection,WindDirectionDegrees,WindSpeedMPH,WindSpeedGustMPH,Humidity,HourlyPrecipIn,Conditions,Clouds,dailyrainin,SoftwareType,DateUTC
2013-07-13 00:00:00,79.0,54.0,25.70,SSE,157,5.1,9.3,42,0.00,,,0.00,Rainwise IP-100,2013-07-13 06:00:00,
2013-07-13 00:05:00,78.7,54.5,25.70,South,180,4.0,8.9,43,0.00,,,0.00,Rainwise IP-100,2013-07-13 06:05:00,
2013-07-13 00:10:00,78.6,55.0,25.71,SSE,157,3.0,5.8,44,0.00,,,0.00,Rainwise IP-100,2013-07-13 06:10:00,
2013-07-13 00:15:00,78.2,54.5,25.71,South,180,1.2,4.0,44,0.00,,,0.00,Rainwise IP-100,2013-07-13 06:15:00,
2013-07-13 00:20:00,77.9,55.0,25.71,WNW,292,3.5,3.7,45,0.00,,,0.00,Rainwise IP-100,2013-07-13 06:20:00,
2013-07-13 00:25:00,77.7,54.5,25.71,NNW,337,3.5,4.4,45,0.00,,,0.00,Rainwise IP-100,2013-07-13 06:25:00,
2013-07-13 00:30:00,76.7,54.5,25.71,NNW,337,4.7,7.9,46,0.00,,,0.00,Rainwise IP-100,2013-07-13 06:30:00,
2013-07-13 00:35:00,75.9,54.5,25.71,NNW,337,4.0,5.4,48,0.00,,,0.00,Rainwise IP-100,2013-07-13 06:35:00,
2013-07-13 00:40:00,75.2,55.0,25.72,NNW,337,4.7,6.3,50,0.00,,,0.00,Rainwise IP-100,2013-07-13 06:40:00,
2013-07-13 00:45:00,73.9,56.5,25.72,NNW,337,5.8,8.6,54,0.00,,,0.00,Rainwise IP-100,2013-07-13 06:45:00,
2013-07-13 00:50:00,72.8,57.0,25.72,NNE,22,5.1,11.2,58,0.00,,,0.00,Rainwise IP-100,2013-07-13 06:50:00,
2013-07-13 00:55:00,72.3,57.5,25.72,NNE,22,5.1,10.3,60,0.00,,,0.00,Rainwise IP-100,2013-07-13 06:55:00,
2013-07-13 01:00:00,72.1,57.5,25.72,NNE,22,6.5,13.8,61,0.00,,,0.00,Rainwise IP-100,2013-07-13 07:00:00,
2013-07-13 01:05:00,71.9,58.0,25.71,NNE,22,11.0,13.3,62,0.00,,,0.00,Rainwise IP-100,2013-07-13 07:05:00,
2013-07-13 01:10:00,71.9,59.0,25.71,NNE,22,7.9,14.0,63,0.00,,,0.00,Rainwise IP-100,2013-07-13 07:10:00,
2013-07-13 01:15:00,71.7,59.0,25.71,NNE,22,8.2,12.8,64,0.00,,,0.00,Rainwise IP-100,2013-07-13 07:15:00,
2013-07-13 01:20:00,71.4,58.0,25.71,North,360,11.9,12.8,64,0.00,,,0.00,Rainwise IP-100,2013-07-13 07:20:00,
2013-07-13 01:25:00,71.0,58.0,25.71,NNE,22,10.0,12.1,65,0.00,,,0.00,Rainwise IP-100,2013-07-13 07:25:00,
2013-07-13 01:30:00,70.8,59.0,25.71,NNE,22,11.4,14.0,66,0.00,,,0.00,Rainwise IP-100,2013-07-13 07:30:00,
2013-07-13 01:35:00,70.7,59.0,25.72,NNE,22,9.8,13.1,67,0.00,,,0.00,Rainwise IP-100,2013-07-13 07:35:00,
2013-07-13 01:40:00,70.6,59.0,25.72,ENE,67,5.1,12.1,67,0.00,,,0.00,Rainwise IP-100,2013-07-13 07:40:00,
2013-07-13 01:45:00,70.4,59.0,25.72,NNE,22,2.8,8.6,67,0.00,,,0.00,Rainwise IP-100,2013-07-13 07:45:00,
2013-07-13 01:50:00,70.0,59.0,25.71,ENE,67,7.2,8.4,68,0.00,,,0.00,Rainwise IP-100,2013-07-13 07:50:00,
2013-07-13 01:55:00,69.7,59.0,25.71,ENE,67,7.7,10.0,69,0.00,,,0.00,Rainwise IP-100,2013-07-13 07:55:00,
2013-07-13 02:00:00,69.4,59.0,25.71,ENE,67,6.5,8.9,70,0.00,,,0.00,Rainwise IP-100,2013-07-13 08:00:00,
2013-07-13 02:05:00,69.2,59.5,25.72,ENE,67,6.3,8.6,71,0.00,,,0.00,Rainwise IP-100,2013-07-13 08:05:00,
2013-07-13 02:10:00,68.9,59.5,25.72,East,90,4.7,8.4,72,0.00,,,0.00,Rainwise IP-100,2013-07-13 08:10:00,
2013-07-13 02:15:00,68.5,59.0,25.71,ENE,67,4.0,6.1,72,0.00,,,0.00,Rainwise IP-100,2013-07-13 08:15:00,
2013-07-13 02:20:00,68.2,59.0,25.72,ESE,112,0.0,4.9,73,0.00,,,0.00,Rainwise IP-100,2013-07-13 08:20:00,
2013-07-13 02:25:00,68.2,59.5,25.71,NE,45,8.2,14.9,74,0.00,,,0.00,Rainwise IP-100,2013-07-13 08:25:00,
2013-07-13 02:30:00,68.4,60.0,25.71,NNE,22,10.0,14.2,74,0.00,,,0.00,Rainwise IP-100,2013-07-13 08:30:00,
2013-07-13 02:35:00,68.6,60.0,25.72,NNE,22,9.6,12.8,74,0.00,,,0.00,Rainwise IP-100,2013-07-13 08:35:00,
2013-07-13 02:40:00,68.5,60.0,25.71,NNE,22,8.4,13.3,74,0.00,,,0.00,Rainwise IP-100,2013-07-13 08:40:00,
2013-07-13 02:45:00,68.6,60.0,25.72,NNE,22,7.5,12.1,74,0.00,,,0.00,Rainwise IP-100,2013-07-13 08:45:00,
2013-07-13 02:50:00,68.6,60.0,25.72,NNE,22,12.1,12.1,74,0.00,,,0.00,Rainwise IP-100,2013-07-13 08:50:00,
2013-07-13 02:55:00,68.6,60.5,25.72,NE,45,8.4,14.5,75,0.00,,,0.00,Rainwise IP-100,2013-07-13 08:55:00,
2013-07-13 03:00:00,68.5,60.5,25.72,NNE,22,10.5,12.6,75,0.00,,,0.00,Rainwise IP-100,2013-07-13 09:00:00,
2013-07-13 03:05:00,68.2,60.0,25.72,NNE,22,11.7,12.8,75,0.00,,,0.00,Rainwise IP-100,2013-07-13 09:05:00,
2013-07-13 03:10:00,68.1,60.0,25.72,ENE,67,3.3,13.1,76,0.00,,,0.00,Rainwise IP-100,2013-07-13 09:10:00,
2013-07-13 03:15:00,67.9,60.0,25.72,NE,45,6.3,9.8,76,0.00,,,0.00,Rainwise IP-100,2013-07-13 09:15:00,
2013-07-13 03:20:00,67.6,60.0,25.73,ENE,67,4.4,8.2,77,0.00,,,0.00,Rainwise IP-100,2013-07-13 09:20:00,
2013-07-13 03:25:00,67.5,60.0,25.72,NNE,22,7.9,10.0,77,0.00,,,0.00,Rainwise IP-100,2013-07-13 09:25:00,
2013-07-13 03:30:00,67.4,60.5,25.72,ENE,67,4.2,10.7,78,0.00,,,0.00,Rainwise IP-100,2013-07-13 09:30:00,
2013-07-13 03:35:00,67.2,60.0,25.73,NNE,22,7.9,11.2,78,0.00,,,0.00,Rainwise IP-100,2013-07-13 09:35:00,
2013-07-13 03:40:00,67.2,60.5,25.72,NNE,22,8.2,12.1,79,0.00,,,0.00,Rainwise IP-100,2013-07-13 09:40:00,
2013-07-13 03:45:00,67.2,60.5,25.72,NNE,22,5.8,10.7,79,0.00,,,0.00,Rainwise IP-100,2013-07-13 09:45:00,
2013-07-13 03:50:00,67.0,61.0,25.72,NNE,22,6.5,9.3,80,0.00,,,0.00,Rainwise IP-100,2013-07-13 09:50:00,
2013-07-13 03:55:00,66.8,60.5,25.72,NNE,22,7.7,10.0,80,0.00,,,0.00,Rainwise IP-100,2013-07-13 09:55:00,
2013-07-13 04:00:00,66.7,60.5,25.72,NNE,22,6.3,9.6,81,0.00,,,0.00,Rainwise IP-100,2013-07-13 10:00:00,
2013-07-13 04:05:00,66.5,60.5,25.73,NNW,337,5.1,10.7,81,0.00,,,0.00,Rainwise IP-100,2013-07-13 10:05:00,
2013-07-13 04:10:00,66.4,60.5,25.73,NNW,337,7.2,9.6,82,0.00,,,0.00,Rainwise IP-100,2013-07-13 10:10:00,
2013-07-13 04:15:00,66.3,60.5,25.73,North,360,6.1,10.3,82,0.00,,,0.00,Rainwise IP-100,2013-07-13 10:15:00,
2013-07-13 04:20:00,66.1,60.5,25.73,North,360,8.6,11.4,83,0.00,,,0.00,Rainwise IP-100,2013-07-13 10:20:00,
2013-07-13 04:25:00,65.9,60.5,25.73,NNW,337,5.8,11.4,83,0.00,,,0.00,Rainwise IP-100,2013-07-13 10:25:00,
2013-07-13 04:30:00,65.8,61.0,25.73,NNW,337,8.2,13.8,84,0.00,,,0.00,Rainwise IP-100,2013-07-13 10:30:00,
2013-07-13 04:35:00,65.8,61.0,25.73,North,360,10.3,13.5,84,0.00,,,0.00,Rainwise IP-100,2013-07-13 10:35:00,
2013-07-13 04:40:00,65.7,61.0,25.72,NNE,22,11.2,14.0,85,0.00,,,0.00,Rainwise IP-100,2013-07-13 10:40:00,
2013-07-13 04:45:00,65.7,61.0,25.72,NNW,337,7.0,13.1,85,0.00,,,0.00,Rainwise IP-100,2013-07-13 10:45:00,
2013-07-13 04:50:00,65.5,61.0,25.73,North,360,10.7,12.1,85,0.00,,,0.00,Rainwise IP-100,2013-07-13 10:50:00,
2013-07-13 04:55:00,65.4,61.0,25.73,North,360,6.5,11.9,86,0.00,,,0.00,Rainwise IP-100,2013-07-13 10:55:00,
2013-07-13 05:00:00,65.3,61.0,25.73,North,360,8.9,10.5,86,0.00,,,0.00,Rainwise IP-100,2013-07-13 11:00:00,
2013-07-13 05:05:00,65.3,61.0,25.73,NNE,22,6.5,11.4,86,0.00,,,0.00,Rainwise IP-100,2013-07-13 11:05:00,
2013-07-13 05:10:00,65.3,61.0,25.73,NNE,22,7.7,11.2,86,0.00,,,0.00,Rainwise IP-100,2013-07-13 11:10:00,
2013-07-13 05:15:00,65.3,61.0,25.73,NNE,22,8.2,10.7,86,0.00,,,0.00,Rainwise IP-100,2013-07-13 11:15:00,
2013-07-13 05:20:00,65.3,61.0,25.72,NE,45,6.5,9.8,86,0.00,,,0.00,Rainwise IP-100,2013-07-13 11:20:00,
2013-07-13 05:25:00,65.2,61.0,25.72,NNE,22,4.9,10.5,87,0.00,,,0.00,Rainwise IP-100,2013-07-13 11:25:00,
2013-07-13 05:30:00,65.1,61.0,25.72,NNW,337,4.2,9.3,87,0.00,,,0.00,Rainwise IP-100,2013-07-13 11:30:00,
2013-07-13 05:35:00,64.8,61.0,25.72,NNW,337,5.1,9.3,87,0.00,,,0.00,Rainwise IP-100,2013-07-13 11:35:00,
2013-07-13 05:40:00,64.8,61.5,25.72,NNE,22,4.9,10.3,88,0.00,,,0.00,Rainwise IP-100,2013-07-13 11:40:00,
2013-07-13 05:45:00,64.7,61.0,25.72,NNW,337,6.8,8.4,88,0.00,,,0.00,Rainwise IP-100,2013-07-13 11:45:00,
2013-07-13 05:50:00,64.7,61.0,25.72,North,360,4.0,10.5,88,0.00,,,0.00,Rainwise IP-100,2013-07-13 11:50:00,
2013-07-13 05:55:00,64.7,61.0,25.73,North,360,8.4,10.5,88,0.00,,,0.00,Rainwise IP-100,2013-07-13 11:55:00,
2013-07-13 06:00:00,64.7,61.0,25.73,North,360,5.1,11.0,88,0.00,,,0.00,Rainwise IP-100,2013-07-13 12:00:00,
2013-07-13 06:05:00,64.9,61.5,25.73,NNW,337,4.4,7.9,88,0.00,,,0.00,Rainwise IP-100,2013-07-13 12:05:00,
2013-07-13 06:10:00,65.2,61.5,25.73,North,360,7.9,9.3,88,0.00,,,0.00,Rainwise IP-100,2013-07-13 12:10:00,
2013-07-13 06:15:00,65.4,61.5,25.73,NNW,337,3.3,8.2,87,0.00,,,0.00,Rainwise IP-100,2013-07-13 12:15:00,
2013-07-13 06:20:00,65.8,62.0,25.73,North,360,8.2,9.3,87,0.00,,,0.00,Rainwise IP-100,2013-07-13 12:20:00,
2013-07-13 06:25:00,66.4,62.0,25.73,NNE,22,4.4,9.3,86,0.00,,,0.00,Rainwise IP-100,2013-07-13 12:25:00,
2013-07-13 06:30:00,67.1,62.5,25.73,North,360,4.4,8.2,85,0.00,,,0.00,Rainwise IP-100,2013-07-13 12:30:00,
2013-07-13 06:35:00,67.6,62.0,25.73,NNW,337,3.3,11.0,83,0.00,,,0.00,Rainwise IP-100,2013-07-13 12:35:00,
2013-07-13 06:40:00,67.9,62.5,25.73,NNE,22,9.8,11.9,82,0.00,,,0.00,Rainwise IP-100,2013-07-13 12:40:00,
2013-07-13 06:44:00,68.0,62.5,25.73,NNE,22,9.1,11.9,82,0.00,,,0.00,Rainwise IP-100,2013-07-13 12:44:00,
2013-07-13 06:49:00,68.5,62.5,25.73,NNW,337,5.8,10.0,81,0.00,,,0.00,Rainwise IP-100,2013-07-13 12:49:00,
2013-07-13 06:54:00,68.8,62.5,25.73,NNW,337,6.8,11.2,80,0.00,,,0.00,Rainwise IP-100,2013-07-13 12:54:00,
2013-07-13 06:59:00,68.9,62.5,25.74,NNW,337,2.1,11.2,80,0.00,,,0.00,Rainwise IP-100,2013-07-13 12:59:00,
2013-07-13 07:04:00,69.2,62.5,25.74,North,360,3.7,12.6,79,0.00,,,0.00,Rainwise IP-100,2013-07-13 13:04:00,
2013-07-13 07:09:00,69.5,62.5,25.74,North,360,7.5,10.7,78,0.00,,,0.00,Rainwise IP-100,2013-07-13 13:09:00,
2013-07-13 07:14:00,70.0,62.5,25.74,NNE,22,8.4,9.6,77,0.00,,,0.00,Rainwise IP-100,2013-07-13 13:14:00,
2013-07-13 07:19:00,70.5,62.5,25.74,North,360,7.5,9.6,76,0.00,,,0.00,Rainwise IP-100,2013-07-13 13:19:00,
2013-07-13 07:24:00,70.9,62.5,25.74,NNW,337,1.4,11.0,75,0.00,,,0.00,Rainwise IP-100,2013-07-13 13:24:00,
2013-07-13 07:29:00,71.3,62.5,25.74,NNW,337,3.5,10.7,74,0.00,,,0.00,Rainwise IP-100,2013-07-13 13:29:00,
2013-07-13 07:34:00,71.7,62.5,25.74,NNW,337,3.5,9.8,73,0.00,,,0.00,Rainwise IP-100,2013-07-13 13:34:00,
2013-07-13 07:39:00,72.2,63.0,25.74,North,360,6.3,8.6,72,0.00,,,0.00,Rainwise IP-100,2013-07-13 13:39:00,
2013-07-13 07:44:00,72.6,63.0,25.74,NNE,22,5.1,10.0,71,0.00,,,0.00,Rainwise IP-100,2013-07-13 13:44:00,
2013-07-13 07:49:00,73.1,62.5,25.74,NNW,337,2.1,9.6,70,0.00,,,0.00,Rainwise IP-100,2013-07-13 13:49:00,
2013-07-13 07:54:00,73.4,62.5,25.75,NNE,22,1.4,10.0,69,0.00,,,0.00,Rainwise IP-100,2013-07-13 13:54:00,
2013-07-13 07:59:00,73.7,62.5,25.74,North,360,6.1,8.9,68,0.00,,,0.00,Rainwise IP-100,2013-07-13 13:59:00,
2013-07-13 08:04:00,74.2,63.0,25.75,NNW,337,6.8,8.2,67,0.00,,,0.00,Rainwise IP-100,2013-07-13 14:04:00,
2013-07-13 08:09:00,74.1,62.5,25.75,NNW,337,3.7,7.9,67,0.00,,,0.00,Rainwise IP-100,2013-07-13 14:09:00,
2013-07-13 08:14:00,74.1,62.0,25.74,North,360,0.0,6.3,66,0.00,,,0.00,Rainwise IP-100,2013-07-13 14:14:00,
2013-07-13 08:19:00,75.2,62.5,25.75,NNW,337,4.4,6.5,65,0.00,,,0.00,Rainwise IP-100,2013-07-13 14:19:00,
2013-07-13 08:24:00,76.1,62.5,25.75,NNE,22,1.9,6.1,63,0.00,,,0.00,Rainwise IP-100,2013-07-13 14:24:00,
2013-07-13 08:29:00,76.5,62.5,25.75,NNW,337,6.3,6.3,62,0.00,,,0.00,Rainwise IP-100,2013-07-13 14:29:00,
2013-07-13 08:34:00,76.1,62.0,25.75,NNW,337,4.7,8.2,62,0.00,,,0.00,Rainwise IP-100,2013-07-13 14:34:00,
2013-07-13 08:39:00,76.1,61.5,25.75,NNW,337,5.6,7.9,61,0.00,,,0.00,Rainwise IP-100,2013-07-13 14:39:00,
2013-07-13 08:44:00,76.7,62.0,25.75,NNW,337,4.0,8.9,60,0.00,,,0.00,Rainwise IP-100,2013-07-13 14:44:00,
2013-07-13 08:49:00,76.7,62.0,25.75,NNW,337,8.4,8.4,60,0.00,,,0.00,Rainwise IP-100,2013-07-13 14:49:00,
2013-07-13 08:54:00,76.8,62.0,25.75,NNW,337,6.1,8.4,60,0.00,,,0.00,Rainwise IP-100,2013-07-13 14:54:00,
2013-07-13 08:59:00,77.3,62.5,25.75,NW,315,6.5,7.9,60,0.00,,,0.00,Rainwise IP-100,2013-07-13 14:59:00,
2013-07-13 09:04:00,77.0,61.5,25.75,NNW,337,4.0,7.5,59,0.00,,,0.00,Rainwise IP-100,2013-07-13 15:04:00,
2013-07-13 09:09:00,77.4,62.0,25.75,NNW,337,4.2,8.4,59,0.00,,,0.00,Rainwise IP-100,2013-07-13 15:09:00,
2013-07-13 09:14:00,78.2,62.5,25.75,NW,315,4.4,7.2,58,0.00,,,0.00,Rainwise IP-100,2013-07-13 15:14:00,
2013-07-13 09:19:00,78.3,62.5,25.75,WNW,292,5.6,9.8,58,0.00,,,0.00,Rainwise IP-100,2013-07-13 15:19:00,
2013-07-13 09:24:00,77.7,62.0,25.75,NW,315,3.7,9.3,58,0.00,,,0.00,Rainwise IP-100,2013-07-13 15:24:00,
2013-07-13 09:29:00,77.6,62.0,25.75,NNW,337,1.6,7.5,58,0.00,,,0.00,Rainwise IP-100,2013-07-13 15:29:00,
2013-07-13 09:34:00,78.4,62.0,25.75,NW,315,2.8,8.9,57,0.00,,,0.00,Rainwise IP-100,2013-07-13 15:34:00,
2013-07-13 09:39:00,79.1,62.0,25.75,NNW,337,2.1,8.2,56,0.00,,,0.00,Rainwise IP-100,2013-07-13 15:39:00,
2013-07-13 09:44:00,79.4,62.0,25.75,WNW,292,6.5,11.0,55,0.00,,,0.00,Rainwise IP-100,2013-07-13 15:44:00,
2013-07-13 09:49:00,79.3,61.5,25.75,WNW,292,5.6,7.2,54,0.00,,,0.00,Rainwise IP-100,2013-07-13 15:49:00,
2013-07-13 09:54:00,78.9,61.5,25.75,WNW,292,4.4,11.0,55,0.00,,,0.00,Rainwise IP-100,2013-07-13 15:54:00,
2013-07-13 09:59:00,79.0,61.5,25.75,NNW,337,5.8,9.3,55,0.00,,,0.00,Rainwise IP-100,2013-07-13 15:59:00,
2013-07-13 10:04:00,79.5,62.0,25.75,WNW,292,8.9,11.4,55,0.00,,,0.00,Rainwise IP-100,2013-07-13 16:04:00,
2013-07-13 10:09:00,79.8,61.5,25.75,NNW,337,10.5,10.5,54,0.00,,,0.00,Rainwise IP-100,2013-07-13 16:09:00,
2013-07-13 10:14:00,80.0,62.0,25.75,NW,315,5.1,12.8,54,0.00,,,0.00,Rainwise IP-100,2013-07-13 16:14:00,
2013-07-13 10:19:00,80.1,62.0,25.75,NNW,337,7.9,10.3,54,0.00,,,0.00,Rainwise IP-100,2013-07-13 16:19:00,
2013-07-13 10:24:00,80.4,62.5,25.75,West,270,2.6,10.0,54,0.00,,,0.00,Rainwise IP-100,2013-07-13 16:24:00,
2013-07-13 10:29:00,81.0,62.5,25.75,WNW,292,5.4,6.1,53,0.00,,,0.00,Rainwise IP-100,2013-07-13 16:29:00,
2013-07-13 10:34:00,81.7,62.5,25.75,WNW,292,1.9,5.8,52,0.00,,,0.00,Rainwise IP-100,2013-07-13 16:34:00,
2013-07-13 10:39:00,82.7,62.5,25.75,WNW,292,1.9,11.7,50,0.00,,,0.00,Rainwise IP-100,2013-07-13 16:39:00,
2013-07-13 10:44:00,82.9,62.0,25.74,NW,315,2.3,6.1,49,0.00,,,0.00,Rainwise IP-100,2013-07-13 16:44:00,
2013-07-13 10:49:00,83.4,62.0,25.74,NNE,22,4.9,4.9,48,0.00,,,0.00,Rainwise IP-100,2013-07-13 16:49:00,
2013-07-13 10:54:00,84.9,62.5,25.75,North,360,0.0,7.7,47,0.00,,,0.00,Rainwise IP-100,2013-07-13 16:54:00,
2013-07-13 10:59:00,85.6,61.5,25.74,WNW,292,7.0,7.0,45,0.00,,,0.00,Rainwise IP-100,2013-07-13 16:59:00,
2013-07-13 11:04:00,84.6,61.0,25.75,NNW,337,5.6,8.2,45,0.00,,,0.00,Rainwise IP-100,2013-07-13 17:04:00,
2013-07-13 11:09:00,84.3,61.5,25.75,NNE,22,1.9,11.7,46,0.00,,,0.00,Rainwise IP-100,2013-07-13 17:09:00,
2013-07-13 11:14:00,85.4,61.5,25.75,ENE,67,2.3,7.2,45,0.00,,,0.00,Rainwise IP-100,2013-07-13 17:14:00,
2013-07-13 11:19:00,85.8,61.5,25.75,NNW,337,4.0,7.7,44,0.00,,,0.00,Rainwise IP-100,2013-07-13 17:19:00,
2013-07-13 11:24:00,86.3,61.0,25.75,West,270,3.0,5.8,43,0.00,,,0.00,Rainwise IP-100,2013-07-13 17:24:00,
2013-07-13 11:29:00,86.6,60.5,25.75,SSE,157,1.6,7.7,42,0.00,,,0.00,Rainwise IP-100,2013-07-13 17:29:00,
2013-07-13 11:34:00,86.5,60.0,25.74,WSW,247,7.5,7.5,41,0.00,,,0.00,Rainwise IP-100,2013-07-13 17:34:00,
2013-07-13 11:39:00,86.3,60.0,25.75,WSW,247,2.3,8.4,41,0.00,,,0.00,Rainwise IP-100,2013-07-13 17:39:00,
2013-07-13 11:44:00,86.3,60.0,25.74,WNW,292,3.0,7.7,41,0.00,,,0.00,Rainwise IP-100,2013-07-13 17:44:00,
2013-07-13 11:50:00,86.5,60.0,25.74,NNW,337,3.0,4.9,41,0.00,,,0.00,Rainwise IP-100,2013-07-13 17:50:00,
2013-07-13 11:55:00,87.6,60.5,25.74,NW,315,4.4,5.1,40,0.00,,,0.00,Rainwise IP-100,2013-07-13 17:55:00,
2013-07-13 12:00:00,89.2,61.0,25.74,North,360,1.9,7.2,39,0.00,,,0.00,Rainwise IP-100,2013-07-13 18:00:00,
2013-07-13 12:05:00,89.5,60.0,25.74,North,360,4.9,7.7,37,0.00,,,0.00,Rainwise IP-100,2013-07-13 18:05:00,
2013-07-13 12:10:00,89.4,59.0,25.74,NNE,22,0.0,7.2,36,0.00,,,0.00,Rainwise IP-100,2013-07-13 18:10:00,
2013-07-13 12:15:00,90.0,59.5,25.74,North,360,2.1,7.2,36,0.00,,,0.00,Rainwise IP-100,2013-07-13 18:15:00,
2013-07-13 12:20:00,91.0,59.5,25.74,NNW,337,0.0,6.3,35,0.00,,,0.00,Rainwise IP-100,2013-07-13 18:20:00,
2013-07-13 12:25:00,90.2,59.0,25.74,NNW,337,3.7,6.8,35,0.00,,,0.00,Rainwise IP-100,2013-07-13 18:25:00,
2013-07-13 12:30:00,89.1,57.5,25.74,SW,225,6.8,6.8,35,0.00,,,0.00,Rainwise IP-100,2013-07-13 18:30:00,
2013-07-13 12:35:00,88.8,58.0,25.74,NNW,337,1.9,9.6,36,0.00,,,0.00,Rainwise IP-100,2013-07-13 18:35:00,
2013-07-13 12:40:00,89.0,59.0,25.74,SSW,202,4.9,5.4,36,0.00,,,0.00,Rainwise IP-100,2013-07-13 18:40:00,
2013-07-13 12:45:00,89.0,59.0,25.74,SSW,202,4.4,8.6,36,0.00,,,0.00,Rainwise IP-100,2013-07-13 18:45:00,
2013-07-13 12:50:00,88.4,58.0,25.73,SSW,202,1.4,7.5,36,0.00,,,0.00,Rainwise IP-100,2013-07-13 18:50:00,
2013-07-13 12:55:00,89.2,59.0,25.74,SSW,202,1.4,3.0,36,0.00,,,0.00,Rainwise IP-100,2013-07-13 18:55:00,
2013-07-13 13:00:00,90.2,59.0,25.73,WSW,247,4.0,10.0,35,0.00,,,0.00,Rainwise IP-100,2013-07-13 19:00:00,
2013-07-13 13:05:00,90.0,59.0,25.73,WSW,247,3.0,8.9,35,0.00,,,0.00,Rainwise IP-100,2013-07-13 19:05:00,
2013-07-13 13:10:00,89.6,58.0,25.73,SSW,202,2.8,6.8,35,0.00,,,0.00,Rainwise IP-100,2013-07-13 19:10:00,
2013-07-13 13:15:00,90.2,59.0,25.73,ESE,112,2.6,6.1,35,0.00,,,0.00,Rainwise IP-100,2013-07-13 19:15:00,
2013-07-13 13:20:00,91.1,59.0,25.73,ENE,67,0.0,5.8,34,0.00,,,0.00,Rainwise IP-100,2013-07-13 19:20:00,
2013-07-13 13:25:00,91.6,58.0,25.73,SSW,202,5.1,8.4,33,0.00,,,0.00,Rainwise IP-100,2013-07-13 19:25:00,
2013-07-13 13:30:00,91.1,59.0,25.73,SSW,202,2.6,7.2,34,0.00,,,0.00,Rainwise IP-100,2013-07-13 19:30:00,
2013-07-13 13:35:00,90.2,58.0,25.73,South,180,5.4,7.7,34,0.00,,,0.00,Rainwise IP-100,2013-07-13 19:35:00,
2013-07-13 13:40:00,90.2,58.0,25.73,SSE,157,4.0,8.4,34,0.00,,,0.00,Rainwise IP-100,2013-07-13 19:40:00,
2013-07-13 13:45:00,90.3,58.0,25.72,SSE,157,2.3,4.9,34,0.00,,,0.00,Rainwise IP-100,2013-07-13 19:45:00,
2013-07-13 13:50:00,91.0,59.0,25.72,East,90,5.8,6.1,34,0.00,,,0.00,Rainwise IP-100,2013-07-13 19:50:00,
2013-07-13 13:55:00,92.0,59.0,25.71,ENE,67,4.2,7.2,33,0.00,,,0.00,Rainwise IP-100,2013-07-13 19:55:00,
2013-07-13 14:00:00,92.6,58.0,25.71,ENE,67,3.5,8.6,32,0.00,,,0.00,Rainwise IP-100,2013-07-13 20:00:00,
2013-07-13 14:05:00,92.8,57.5,25.71,South,180,4.4,5.4,31,0.00,,,0.00,Rainwise IP-100,2013-07-13 20:05:00,
2013-07-13 14:10:00,93.2,58.0,25.71,North,360,5.4,5.4,31,0.00,,,0.00,Rainwise IP-100,2013-07-13 20:10:00,
2013-07-13 14:15:00,94.6,58.0,25.71,NW,315,1.6,6.5,30,0.00,,,0.00,Rainwise IP-100,2013-07-13 20:15:00,
2013-07-13 14:20:00,95.4,58.0,25.70,South,180,6.1,6.5,29,0.00,,,0.00,Rainwise IP-100,2013-07-13 20:20:00,
2013-07-13 14:25:00,94.8,59.0,25.70,East,90,4.7,8.2,30,0.00,,,0.00,Rainwise IP-100,2013-07-13 20:25:00,
2013-07-13 14:30:00,94.3,58.0,25.70,SSW,202,9.1,9.1,30,0.00,,,0.00,Rainwise IP-100,2013-07-13 20:30:00,
2013-07-13 14:35:00,93.7,59.0,25.70,South,180,9.3,12.1,31,0.00,,,0.00,Rainwise IP-100,2013-07-13 20:35:00,
2013-07-13 14:40:00,93.5,58.0,25.70,ESE,112,3.7,10.3,31,0.00,,,0.00,Rainwise IP-100,2013-07-13 20:40:00,
2013-07-13 14:45:00,94.3,59.5,25.70,ESE,112,4.0,8.2,31,0.00,,,0.00,Rainwise IP-100,2013-07-13 20:45:00,
2013-07-13 14:50:00,94.7,59.0,25.70,ESE,112,7.0,13.1,30,0.00,,,0.00,Rainwise IP-100,2013-07-13 20:50:00,
2013-07-13 14:55:00,93.9,59.0,25.70,SE,135,4.9,8.9,31,0.00,,,0.00,Rainwise IP-100,2013-07-13 20:55:00,
2013-07-13 15:00:00,92.8,59.0,25.70,SSE,157,7.2,10.0,32,0.00,,,0.00,Rainwise IP-100,2013-07-13 21:00:00,
2013-07-13 15:05:00,92.4,58.0,25.70,SW,225,1.4,10.5,32,0.00,,,0.00,Rainwise IP-100,2013-07-13 21:05:00,
2013-07-13 15:10:00,93.1,58.0,25.70,SSE,157,2.3,8.9,31,0.00,,,0.00,Rainwise IP-100,2013-07-13 21:10:00,
2013-07-13 15:15:00,93.5,57.5,25.70,ESE,112,6.3,9.6,30,0.00,,,0.00,Rainwise IP-100,2013-07-13 21:15:00,
2013-07-13 15:20:00,93.3,56.5,25.70,East,90,2.1,8.6,29,0.00,,,0.00,Rainwise IP-100,2013-07-13 21:20:00,
2013-07-13 15:25:00,93.9,57.0,25.69,NNE,22,3.3,5.1,29,0.00,,,0.00,Rainwise IP-100,2013-07-13 21:25:00,
2013-07-13 15:30:00,94.6,56.5,25.70,SSW,202,5.8,11.7,28,0.00,,,0.00,Rainwise IP-100,2013-07-13 21:30:00,
2013-07-13 15:35:00,94.1,56.0,25.69,SSE,157,13.3,13.3,28,0.00,,,0.00,Rainwise IP-100,2013-07-13 21:35:00,
2013-07-13 15:40:00,93.7,56.0,25.69,SSE,157,6.1,13.3,28,0.00,,,0.00,Rainwise IP-100,2013-07-13 21:40:00,
2013-07-13 15:45:00,93.8,56.0,25.68,ESE,112,2.3,14.2,28,0.00,,,0.00,Rainwise IP-100,2013-07-13 21:45:00,
2013-07-13 15:50:00,94.1,56.0,25.68,SSE,157,7.0,11.2,28,0.00,,,0.00,Rainwise IP-100,2013-07-13 21:50:00,
2013-07-13 15:55:00,93.9,56.0,25.68,SSW,202,9.8,13.3,28,0.00,,,0.00,Rainwise IP-100,2013-07-13 21:55:00,
2013-07-13 16:00:00,93.7,56.0,25.68,SSW,202,2.3,12.8,28,0.00,,,0.00,Rainwise IP-100,2013-07-13 22:00:00,
2013-07-13 16:05:00,93.7,56.0,25.68,SSE,157,5.4,14.7,28,0.00,,,0.00,Rainwise IP-100,2013-07-13 22:05:00,
2013-07-13 16:10:00,93.5,56.0,25.68,SSE,157,5.6,13.5,28,0.00,,,0.00,Rainwise IP-100,2013-07-13 22:10:00,
2013-07-13 16:15:00,93.2,55.0,25.68,South,180,8.6,15.4,28,0.00,,,0.00,Rainwise IP-100,2013-07-13 22:15:00,
2013-07-13 16:20:00,93.5,54.5,25.68,SSW,202,5.4,11.7,27,0.00,,,0.00,Rainwise IP-100,2013-07-13 22:20:00,
2013-07-13 16:25:00,93.9,54.5,25.68,SE,135,8.2,11.7,27,0.00,,,0.00,Rainwise IP-100,2013-07-13 22:25:00,
2013-07-13 16:31:00,94.1,55.0,25.68,SSE,157,8.4,10.0,27,0.00,,,0.00,Rainwise IP-100,2013-07-13 22:31:00,
2013-07-13 16:36:00,94.3,55.0,25.68,SSE,157,7.0,11.9,27,0.00,,,0.00,Rainwise IP-100,2013-07-13 22:36:00,
2013-07-13 16:41:00,94.3,55.0,25.68,ESE,112,2.1,15.6,27,0.00,,,0.00,Rainwise IP-100,2013-07-13 22:41:00,
2013-07-13 16:46:00,94.1,55.0,25.68,SSE,157,4.4,13.3,27,0.00,,,0.00,Rainwise IP-100,2013-07-13 22:46:00,
2013-07-13 16:51:00,94.3,55.0,25.67,SSW,202,8.9,12.1,27,0.00,,,0.00,Rainwise IP-100,2013-07-13 22:51:00,
2013-07-13 16:56:00,94.5,54.5,25.67,SW,225,12.4,13.5,26,0.00,,,0.00,Rainwise IP-100,2013-07-13 22:56:00,
2013-07-13 17:01:00,94.5,54.5,25.67,ESE,112,5.1,15.2,26,0.00,,,0.00,Rainwise IP-100,2013-07-13 23:01:00,
2013-07-13 17:06:00,94.4,53.5,25.67,South,180,5.1,13.5,25,0.00,,,0.00,Rainwise IP-100,2013-07-13 23:06:00,
2013-07-13 17:11:00,94.5,53.5,25.67,ESE,112,2.8,9.6,25,0.00,,,0.00,Rainwise IP-100,2013-07-13 23:11:00,
2013-07-13 17:16:00,94.5,53.5,25.67,SE,135,4.4,8.4,25,0.00,,,0.00,Rainwise IP-100,2013-07-13 23:16:00,
2013-07-13 17:21:00,94.1,52.0,25.67,SE,135,5.6,12.6,24,0.00,,,0.00,Rainwise IP-100,2013-07-13 23:21:00,
2013-07-13 17:26:00,93.7,51.0,25.67,ESE,112,4.0,8.9,24,0.00,,,0.00,Rainwise IP-100,2013-07-13 23:26:00,
2013-07-13 17:31:00,93.5,53.0,25.66,East,90,4.4,7.2,25,0.00,,,0.00,Rainwise IP-100,2013-07-13 23:31:00,
2013-07-13 17:36:00,93.4,53.0,25.67,ESE,112,2.6,5.6,25,0.00,,,0.00,Rainwise IP-100,2013-07-13 23:36:00,
2013-07-13 17:41:00,93.4,53.0,25.67,ESE,112,2.8,4.9,25,0.00,,,0.00,Rainwise IP-100,2013-07-13 23:41:00,
2013-07-13 17:46:00,93.3,53.0,25.67,SE,135,1.6,3.0,25,0.00,,,0.00,Rainwise IP-100,2013-07-13 23:46:00,
2013-07-13 17:51:00,93.2,52.0,25.67,SSE,157,1.2,3.7,25,0.00,,,0.00,Rainwise IP-100,2013-07-13 23:51:00,
2013-07-13 17:56:00,93.1,52.0,25.67,SSE,157,2.8,3.7,25,0.00,,,0.00,Rainwise IP-100,2013-07-13 23:56:00,
2013-07-13 18:01:00,93.1,52.0,25.67,SSE,157,2.8,5.1,25,0.00,,,0.00,Rainwise IP-100,2013-07-14 00:01:00,
2013-07-13 18:06:00,93.0,53.5,25.67,ESE,112,3.0,4.2,26,0.00,,,0.00,Rainwise IP-100,2013-07-14 00:06:00,
2013-07-13 18:11:00,92.9,53.5,25.66,SSE,157,2.6,7.0,26,0.00,,,0.00,Rainwise IP-100,2013-07-14 00:11:00,
2013-07-13 18:16:00,92.8,53.0,25.66,ESE,112,5.8,7.5,26,0.00,,,0.00,Rainwise IP-100,2013-07-14 00:16:00,
2013-07-13 18:21:00,92.8,53.0,25.66,ESE,112,3.3,7.5,26,0.00,,,0.00,Rainwise IP-100,2013-07-14 00:21:00,
2013-07-13 18:26:00,92.6,53.0,25.66,ESE,112,1.2,4.9,26,0.00,,,0.00,Rainwise IP-100,2013-07-14 00:26:00,
2013-07-13 18:31:00,92.0,52.0,25.67,WNW,292,6.5,11.4,26,0.00,,,0.00,Rainwise IP-100,2013-07-14 00:31:00,
2013-07-13 18:36:00,89.0,53.5,25.66,NNW,337,8.9,22.6,30,0.00,,,0.00,Rainwise IP-100,2013-07-14 00:36:00,
2013-07-13 18:41:00,84.5,56.5,25.67,NNW,337,18.2,24.7,38,0.00,,,0.00,Rainwise IP-100,2013-07-14 00:41:00,
2013-07-13 18:46:00,82.4,57.0,25.67,NNW,337,3.3,27.5,42,0.00,,,0.00,Rainwise IP-100,2013-07-14 00:46:00,
2013-07-13 18:51:00,82.3,57.5,25.68,NNW,337,10.0,24.2,43,0.00,,,0.00,Rainwise IP-100,2013-07-14 00:51:00,
2013-07-13 18:56:00,81.6,57.0,25.68,NNW,337,18.4,26.3,43,0.00,,,0.00,Rainwise IP-100,2013-07-14 00:56:00,
2013-07-13 19:01:00,81.1,57.0,25.68,NNW,337,13.3,23.1,44,0.00,,,0.00,Rainwise IP-100,2013-07-14 01:01:00,
2013-07-13 19:06:00,81.1,57.5,25.68,North,360,6.1,21.9,45,0.00,,,0.00,Rainwise IP-100,2013-07-14 01:06:00,
2013-07-13 19:11:00,81.3,58.0,25.68,NNW,337,18.9,22.9,45,0.00,,,0.00,Rainwise IP-100,2013-07-14 01:11:00,
2013-07-13 19:16:00,81.6,58.0,25.67,North,360,22.9,23.1,45,0.00,,,0.00,Rainwise IP-100,2013-07-14 01:16:00,
2013-07-13 19:21:00,81.8,58.0,25.67,North,360,17.5,25.2,45,0.00,,,0.00,Rainwise IP-100,2013-07-14 01:21:00,
2013-07-13 19:26:00,82.1,57.5,25.68,NNW,337,16.1,25.4,44,0.00,,,0.00,Rainwise IP-100,2013-07-14 01:26:00,
2013-07-13 19:31:00,82.0,57.5,25.68,NNW,337,15.6,23.8,44,0.00,,,0.00,Rainwise IP-100,2013-07-14 01:31:00,
2013-07-13 19:36:00,81.7,58.0,25.69,NNW,337,14.2,23.6,45,0.00,,,0.00,Rainwise IP-100,2013-07-14 01:36:00,
2013-07-13 19:41:00,81.3,59.0,25.68,NNW,337,9.8,25.2,46,0.00,,,0.00,Rainwise IP-100,2013-07-14 01:41:00,
2013-07-13 19:46:00,80.8,59.0,25.68,NNW,337,18.9,21.2,47,0.00,,,0.00,Rainwise IP-100,2013-07-14 01:46:00,
2013-07-13 19:51:00,80.5,59.0,25.68,NNW,337,7.9,22.4,48,0.00,,,0.00,Rainwise IP-100,2013-07-14 01:51:00,
2013-07-13 19:56:00,80.5,59.5,25.68,NNW,337,18.0,21.5,49,0.00,,,0.00,Rainwise IP-100,2013-07-14 01:56:00,
2013-07-13 20:01:00,80.6,59.5,25.68,NNW,337,6.8,22.9,49,0.00,,,0.00,Rainwise IP-100,2013-07-14 02:01:00,
2013-07-13 20:06:00,80.7,59.5,25.68,NNW,337,10.5,17.7,48,0.00,,,0.00,Rainwise IP-100,2013-07-14 02:06:00,
2013-07-13 20:11:00,80.8,59.5,25.68,NNE,22,7.7,19.1,48,0.00,,,0.00,Rainwise IP-100,2013-07-14 02:11:00,
2013-07-13 20:16:00,81.1,58.0,25.69,NNW,337,10.5,16.1,46,0.00,,,0.00,Rainwise IP-100,2013-07-14 02:16:00,
2013-07-13 20:21:00,81.2,57.5,25.70,NNW,337,1.6,14.5,44,0.00,,,0.00,Rainwise IP-100,2013-07-14 02:21:00,
2013-07-13 20:26:00,81.3,56.5,25.69,NNW,337,2.6,14.5,43,0.00,,,0.00,Rainwise IP-100,2013-07-14 02:26:00,
2013-07-13 20:31:00,81.4,56.0,25.70,North,360,4.9,14.2,42,0.00,,,0.00,Rainwise IP-100,2013-07-14 02:31:00,
2013-07-13 20:36:00,81.5,56.0,25.70,NNE,22,10.0,12.6,41,0.00,,,0.00,Rainwise IP-100,2013-07-14 02:36:00,
2013-07-13 20:41:00,81.6,56.0,25.70,SSE,157,3.7,11.7,41,0.00,,,0.00,Rainwise IP-100,2013-07-14 02:41:00,
2013-07-13 20:46:00,81.8,56.0,25.73,South,180,8.6,12.8,41,0.00,,,0.00,Rainwise IP-100,2013-07-14 02:46:00,
2013-07-13 20:51:00,81.7,56.0,25.72,SSW,202,3.0,11.7,41,0.00,,,0.00,Rainwise IP-100,2013-07-14 02:51:00,
2013-07-13 20:56:00,81.7,56.0,25.73,NNW,337,4.0,18.9,41,0.00,,,0.00,Rainwise IP-100,2013-07-14 02:56:00,
2013-07-13 21:01:00,82.2,54.5,25.71,NNE,22,5.8,19.1,39,0.00,,,0.00,Rainwise IP-100,2013-07-14 03:01:00,
2013-07-13 21:06:00,82.5,55.0,25.72,NNW,337,6.5,14.5,39,0.00,,,0.00,Rainwise IP-100,2013-07-14 03:06:00,
2013-07-13 21:11:00,82.5,54.5,25.73,NNW,337,2.3,6.8,38,0.00,,,0.00,Rainwise IP-100,2013-07-14 03:11:00,
2013-07-13 21:16:00,82.5,54.5,25.74,NNW,337,3.7,5.4,38,0.00,,,0.00,Rainwise IP-100,2013-07-14 03:16:00,
2013-07-13 21:21:00,82.6,54.5,25.74,NNW,337,4.9,6.1,38,0.00,,,0.00,Rainwise IP-100,2013-07-14 03:21:00,
2013-07-13 21:26:00,82.7,54.5,25.74,NW,315,0.0,5.4,38,0.00,,,0.00,Rainwise IP-100,2013-07-14 03:26:00,
2013-07-13 21:31:00,82.7,54.5,25.74,WSW,247,1.6,6.3,38,0.00,,,0.00,Rainwise IP-100,2013-07-14 03:31:00,
2013-07-13 21:36:00,82.6,55.0,25.75,WNW,292,3.0,4.2,39,0.00,,,0.00,Rainwise IP-100,2013-07-14 03:36:00,
2013-07-13 21:41:00,82.1,55.0,25.75,WNW,292,4.0,5.1,40,0.00,,,0.00,Rainwise IP-100,2013-07-14 03:41:00,
2013-07-13 21:46:00,81.6,56.0,25.75,WNW,292,6.3,7.0,41,0.00,,,0.00,Rainwise IP-100,2013-07-14 03:46:00,
2013-07-13 21:51:00,81.2,56.0,25.76,WNW,292,5.4,11.2,42,0.00,,,0.00,Rainwise IP-100,2013-07-14 03:51:00,
2013-07-13 21:56:00,81.1,56.0,25.77,WNW,292,9.8,12.4,42,0.00,,,0.00,Rainwise IP-100,2013-07-14 03:56:00,
2013-07-13 22:01:00,80.5,56.5,25.76,WNW,292,21.2,32.6,44,0.00,,,0.00,Rainwise IP-100,2013-07-14 04:01:00,
2013-07-13 22:06:00,78.9,57.0,25.76,NNW,337,18.9,28.0,47,0.00,,,0.00,Rainwise IP-100,2013-07-14 04:06:00,
2013-07-13 22:08:00,77.9,57.0,25.78,NNW,337,25.6,36.1,48,0.00,,,0.00,Rainwise IP-100,2013-07-14 04:08:00,
2013-07-13 22:13:00,75.0,57.5,25.78,NW,315,19.6,35.4,55,0.00,,,0.00,Rainwise IP-100,2013-07-14 04:13:00,
2013-07-13 22:18:00,72.1,59.0,25.78,NNW,337,10.7,28.7,63,0.00,,,0.00,Rainwise IP-100,2013-07-14 04:18:00,
2013-07-13 22:23:00,70.7,59.0,25.78,NNW,337,14.5,26.8,66,0.00,,,0.00,Rainwise IP-100,2013-07-14 04:23:00,
2013-07-13 22:28:00,70.7,59.0,25.78,NNW,337,18.7,24.0,67,0.00,,,0.00,Rainwise IP-100,2013-07-14 04:28:00,
2013-07-13 22:33:00,70.8,60.0,25.79,NW,315,13.3,25.4,68,0.00,,,0.00,Rainwise IP-100,2013-07-14 04:33:00,
2013-07-13 22:38:00,70.6,60.5,25.78,NNW,337,9.1,22.6,70,0.00,,,0.00,Rainwise IP-100,2013-07-14 04:38:00,
2013-07-13 22:43:00,70.4,60.5,25.78,NNW,337,8.2,26.1,71,0.00,,,0.00,Rainwise IP-100,2013-07-14 04:43:00,
2013-07-13 22:48:00,70.6,60.5,25.78,NNW,337,13.5,21.2,70,0.00,,,0.00,Rainwise IP-100,2013-07-14 04:48:00,
2013-07-13 22:53:00,71.0,60.5,25.78,NNW,337,7.5,17.3,70,0.00,,,0.00,Rainwise IP-100,2013-07-14 04:53:00,
2013-07-13 22:58:00,71.3,60.5,25.78,NNW,337,9.1,18.9,69,0.00,,,0.00,Rainwise IP-100,2013-07-14 04:58:00,
2013-07-13 23:03:00,71.4,60.5,25.78,NNW,337,7.5,15.9,69,0.00,,,0.00,Rainwise IP-100,2013-07-14 05:03:00,
2013-07-13 23:08:00,71.1,60.0,25.78,NW,315,9.1,22.2,69,0.00,,,0.00,Rainwise IP-100,2013-07-14 05:08:00,
2013-07-13 23:13:00,71.1,60.5,25.78,WNW,292,6.8,21.9,70,0.00,,,0.00,Rainwise IP-100,2013-07-14 05:13:00,
2013-07-13 23:18:00,71.0,61.0,25.79,NNW,337,11.2,20.5,71,0.00,,,0.00,Rainwise IP-100,2013-07-14 05:18:00,
2013-07-13 23:23:00,70.8,61.0,25.79,NNW,337,13.5,17.0,71,0.00,,,0.00,Rainwise IP-100,2013-07-14 05:23:00,
2013-07-13 23:28:00,70.8,61.5,25.79,NNE,22,8.6,17.7,72,0.00,,,0.00,Rainwise IP-100,2013-07-14 05:28:00,
2013-07-13 23:33:00,71.0,61.0,25.78,NNE,22,10.5,16.3,71,0.00,,,0.00,Rainwise IP-100,2013-07-14 05:33:00,
2013-07-13 23:38:00,71.1,61.0,25.78,NNE,22,16.8,16.8,71,0.00,,,0.00,Rainwise IP-100,2013-07-14 05:38:00,
2013-07-13 23:43:00,70.9,61.5,25.77,NE,45,9.3,19.4,72,0.00,,,0.00,Rainwise IP-100,2013-07-14 05:43:00,
2013-07-13 23:48:00,70.4,61.5,25.79,WNW,292,2.8,16.1,73,0.00,,,0.00,Rainwise IP-100,2013-07-14 05:48:00,
2013-07-13 23:50:00,70.2,61.5,25.79,NNW,337,7.2,15.6,74,0.00,,,0.00,Rainwise IP-100,2013-07-14 05:50:00,
2013-07-13 23:55:00,69.8,61.5,25.79,NNW,337,10.3,16.1,76,0.00,,,0.00,Rainwise IP-100,2013-07-14 05:55:00,